Location: Stockholm
(59.3330°N, 18.0500°E)
Time: 13:30:45
(UTC+01:00)

Envisat - Pass Details

Date: 28 November 2022
Orbit: 763 x 765 km, 98.2° (Epoch: 29 January)

Event Time Altitude Azimuth Distance (km) Brightness Sun altitude
Rises 06:41:34 0° 16° (NNE) 3,250 6.2 -10.2°
Reaches altitude 10° 06:44:33 10° 358° (N) 2,320 5.2 -9.9°
Maximum altitude 06:47:52 18° 317° (NW) 1,831 4.4 -9.5°
Drops below altitude 10° 06:51:11 10° 276° (W) 2,312 4.9 -9.1°
Enters shadow 06:51:35 - 273° (W) 2,416 5.0 -9.1°
